Regional Weather Roundup
Issued by NWS

Home | Current Version | Previous Version | Graphics & Text | Print | Product List | Glossary On
Versions: 1 2 3 4 5 6 7 8 9 10 11 12 13 14 15 16 17 18 19 20 21 22 23 24 25 26 27
000
ASUS45 KBOU 241507
RWRCO

WEATHER ROUNDUP FOR COLORADO
NATIONAL WEATHER SERVICE DENVER/BOULDER CO
900 AM MDT WED AUG 24 2016

NOTE: "FAIR" INDICATES FEW OR NO CLOUDS BELOW 12000 FEET WITH NO
SIGNIFICANT WEATHER AND/OR OBSTRUCTIONS TO VISIBILITY.

COZ001>005-013-030-031-241600-
...NORTHWEST COLORADO...

CITY           SKY/WX    TMP DP  RH WIND       PRES   REMARKS
CRAIG          FAIR      56  45  66 CALM      30.26S
HAYDEN         FAIR      55  41  58 E8        30.27F
MEEKER         FAIR      56  44  64 CALM      30.27F
MOUNT WERNER   NOT AVBL
STEAMBOAT SPGS FAIR      54  44  69 CALM      30.29F
WALDEN         CLOUDY    50  39  66 SE5       30.36F
$$

COZ006>008-011-241600-
...WEST CENTRAL VALLEYS...

CITY           SKY/WX    TMP DP  RH WIND       PRES   REMARKS
GRAND JUNCTION FAIR      66  49  54 SE10      30.21S
MONTROSE       FAIR      59  50  72 SE5       30.29R
EAGLE          SUNNY     54  45  71 CALM      30.33S
RIFLE          FAIR      58  51  78 CALM      30.26S
DELTA          FAIR      63  54  73 E5        30.26R
NUCLA          FAIR      57  50  77 E5        30.31S
$$

COZ017>023-064>068-241600-
...SOUTHWEST COLORADO...

CITY           SKY/WX    TMP DP  RH WIND       PRES   REMARKS
DURANGO        PTSUNNY   54  49  83 SE6       30.31R
CORTEZ         FAIR      57  52  83 N3        30.27R
PAGOSA SPRINGS CLOUDY    52  49  88 CALM      30.36R
TELLURIDE      FAIR      48  45  89 CALM      30.45R
WOLF CREEK PAS CLOUDY    36  36 100 NE9       30.57R
$$

COZ009-010-012-014-032>034-037-058>063-241600-
...CENTRAL COLORADO...

CITY           SKY/WX    TMP DP  RH WIND       PRES   REMARKS
ASPEN          FAIR      50  46  86 CALM      30.35S
BUENA VISTA    CLOUDY    50  45  83 CALM      30.38S
COPPER MTN     LGT RAIN  41  36  81 E5        30.55S VSB 1/4
BERTHOUD PASS  LGT SNOW  32  19  59 E6        30.58S WCI  26
COTTONWOOD PAS CLOUDY    48  45  87 CALM      30.46R
GUNNISON       FAIR      50  45  81 CALM      30.40R
KREMMLING      FAIR      52  45  76 CALM      30.37R
LEADVILLE      LGT RAIN  42  38  85 CALM      30.45R
MONARCH PASS   FOG       37  36  93 W5        30.64S VSB<1/4
SALIDA         CLOUDY    52  48  88 SW3       30.44S
SUNLIGHT       FAIR      48  39  71 CALM      30.53S
WILKERSON PASS RAIN      37  37 100 CALM      30.55S
$$

COZ069>075-241600-
...SAN LUIS VALLEY/SANGRE DE CRISTO MOUNTAINS...

CITY           SKY/WX    TMP DP  RH WIND       PRES   REMARKS
ALAMOSA        CLOUDY    53  49  86 VRB3      30.34S
LA VETA PASS   CLOUDY    45  41  87 CALM      30.46S
SAGUACHE       CLOUDY    54  45  71 NW9       30.37S
$$

COZ035-036-038>040-241600-
...NORTHERN COLORADO FRONT RANGE...

CITY           SKY/WX    TMP DP  RH WIND       PRES   REMARKS
DENVER INTL AP CLOUDY    67  41  38 SE9       30.23R
DMNS CITY PARK   N/A     66  46  48 SE7       30.23R
AURORA         CLOUDY    67  43  41 S7        30.24R
FRONT RANGE AP CLOUDY    66  45  45 E18G26    30.24R
ERIE MUNI ARPT CLOUDY    67  45  44 SE10      30.20R
BOULDER MUN AP LGT RAIN  66  45  45 E3        30.20S
CENTENNIAL     CLOUDY    65  42  43 VRB3      30.25R
BROOMFIELD     PTSUNNY   64  45  48 S6        30.23R
FORT COLLINS   FAIR      63  46  55 N7        30.22R
LONGMONT       CLOUDY    67  49  51 N8        30.22R
$$

COZ041-046-047-076>085-087-088-241600-
...PIKES PEAK/PALMER DIVIDE AND SOUTHERN FOOTHILLS...

CITY           SKY/WX    TMP DP  RH WIND       PRES   REMARKS
COLO. SPRINGS  PTSUNNY   65  44  46 N6        30.26S
A. F. ACADEMY  CLOUDY    60  46  60 N6        30.27S
SCHRIEVER AFB  NOT AVBL
ELLICOTT       NOT AVBL
FALCON         CLOUDY    60  42  51 N5        30.31R
FORT CARSON    NOT AVBL
LIMON          PTSUNNY   63  40  42 E9        30.25R
MONUMENT HILL  LGT RAIN  54  46  76 MISG      30.33R
TRINIDAD       FAIR      60  50  69 W10       30.23F
$$

COZ042>045-048>051-090-091-241600-
...NORTHEAST COLORADO...

CITY           SKY/WX    TMP DP  RH WIND       PRES   REMARKS
GREELEY ARPT   CLOUDY    63  52  67 CALM      30.23R
AKRON          CLOUDY    63  40  42 NE6       30.23R
BURLINGTON     CLOUDY    68  42  38 NE14      30.17F
WRAY           NOT AVBL
STERLING       LGT RAIN  61  50  67 CALM      30.19S
HOLYOKE        FAIR      66  43  42 N5        30.20R
FORT MORGAN    CLOUDY    59  44  56 E15       30.22R
$$

COZ086-089-092>099-241600-
...SOUTHEAST COLORADO...

CITY           SKY/WX    TMP DP  RH WIND       PRES   REMARKS
PUEBLO         CLOUDY    65  51  60 W9        30.17F
LA JUNTA       FAIR      69  53  56 W5        30.15F
LAMAR          FAIR      67  53  61 N5        30.11S
SPRINGFIELD      N/A     66  52  60 NW13      30.14R
$$




USA.gov is the U.S. government's official web portal to all federal, state and local government web resources and services.